Regional Weather Roundup
Issued by NWS Columbia, SC

Home | Current Version | Previous Version | Text Only | Print | Product List | Glossary On
Versions: 1 2 3 4 5 6 7 8 9 10 11 12 13 14 15 16 17 18 19 20 21 22 23 24 25 26 27 28 29 30 31 32 33 34 35 36 37 38 39 40 41 42 43 44 45 46 47 48 49 50
000
ASUS42 KCAE 192210
RWRCAE
REGIONAL WEATHER ROUNDUP
NATIONAL WEATHER SERVICE COLUMBIA SC
500 PM EST SUN FEB 19 2017

NOTE: "FAIR" INDICATES FEW OR NO CLOUDS BELOW 12,000 FEET WITH NO
SIGNIFICANT WEATHER AND/OR OBSTRUCTIONS TO VISIBILITY.

NOT ALL STATIONS ARE QUALITY CONTROLLED BY THE NATIONAL
WEATHER SERVICE. USE DATA WITH CAUTION...ESPECIALLY
DEWPOINT OBSERVATIONS.

SCZ001>056-GAZ040-063>065-077-192300-
...UPSTATE SOUTH CAROLINA...

CITY           SKY/WX    TMP DP  RH WIND       PRES   REMARKS
ANDERSON       SUNNY     71  44  37 E5        30.04R
LIBERTY        CLEAR     71  44  37 E5        30.04R
SPARTANBURG    SUNNY     70  41  35 N6        30.02S
CLEMSON        SUNNY     74  44  34 CALM      30.05R
GREENVILLE     SUNNY     70  43  37 NW9       30.05R
GREENWOOD      SUNNY     71  44  37 N5        30.04R
GREER          SUNNY     69  43  38 N6        30.03R
ROCK HILL      SUNNY     70  43  37 N6        30.02S
CHESTER        CLEAR     68  39  34 NW5       30.02S
LAURENS        CLEAR     68  45  42 N3        30.03S


...CENTRAL SOUTH CAROLINA...

CITY           SKY/WX    TMP DP  RH WIND       PRES   REMARKS
COLUMBIA APT   MOSUNNY   72  48  42 W8        30.01R
COLUMBIA OWENS MOSUNNY   72  47  40 NW7       30.02R
MCENTIRE ANGB  SUNNY     71  48  43 NW10      30.01R
ORANGEBURG     SUNNY     72  47  40 VRB5      30.01R
SUMTER SHAW    SUNNY     71  47  42 N10       29.98S
AIKEN          FAIR      70  46  43 NW5       30.06R
BARNWELL       FAIR      73  52  46 VRB5      30.02R
MANNING        FAIR      70  45  40 MISG      30.00R
CAMDEN         FAIR      70  46  43 NW7       30.02R
LANCASTER      CLEAR     68  45  42 N7        30.02S
WINNSBORO      CLEAR     68  46  45 N5        30.02R


...EASTERN AND COASTAL SOUTH CAROLINA...

CITY           SKY/WX    TMP DP  RH WIND       PRES   REMARKS
MYRTLE BEACH   SUNNY     72  46  40 NW12      29.99R
N MYRTLE BCH   SUNNY     71  47  42 VRB7      29.96R
CONWAY         FAIR      70  46  43 CALM      29.98S
MARION         FAIR      70  45  40 W10       29.98R
HARTSVILLE     FAIR      70  45  40 W5        30.00R
FLORENCE       SUNNY     70  46  42 NW12G18   29.99S
DARLINGTON     SUNNY     69  48  47 NW12      30.00R
CHARLESTON APT SUNNY     73  46  38 N15       29.99S
MOUNT PLEASANT FAIR      72  50  46 N8        29.99S
WALTERBORO     CLEAR     72  46  40 NW12      30.01S
BEAUFORT       SUNNY     75  49  39 NW9       30.01R


...EASTERN GEORGIA...

CITY           SKY/WX    TMP DP  RH WIND       PRES   REMARKS
AUGUSTA BUSH F SUNNY     75  48  38 N7        30.01R
AUGUSTA DANIEL SUNNY     74  46  36 NW7       30.03R
THOMSON        SUNNY     74  53  46 CALM      30.07R
WASHINGTON     FAIR      75  52  43 N5        30.04R
CLAXTON        FAIR      74  55  50 CALM      30.02S
SYLVANIA       CLEAR    N/A N/A N/A N3        30.03R
STATESBORO     MOSUNNY   72  54  52 NW3       30.02R
SAVANNAH       MOSUNNY   76  47  35 NW12      30.01R


...SOUTHERN NORTH CAROLINA...

CITY           SKY/WX    TMP DP  RH WIND       PRES   REMARKS
CHARLOTTE      SUNNY     71  42  35 NW5       30.02S
MONROE         SUNNY     69  42  37 N9        30.01R
WADESBORO      CLEAR     70  43  36 NW7       30.00S
ROCKINGHAM     CLEAR     69  46  43 W10       30.00R
RUTHERFORDTON  SUNNY     68  42  37 N6        30.05S
ASHEVILLE      SUNNY     61  38  42 N13       30.09R

$$



USA.gov is the U.S. government's official web portal to all federal, state and local government web resources and services.